Weather reports worldwide

Advertisment
Eskdalemuir, United Kingdom (3162): temperature & dewpoint: 23.05.2020 14:00:00 - 29.05.2020 14:00:00 (BST)Eskdalemuir, United Kingdom (3162): temperature -20cm & temperature -100cm: 23.05.2020 14:00:00 - 29.05.2020 14:00:00 (BST)Eskdalemuir, United Kingdom (3162): wind speed & gusts: 23.05.2020 14:00:00 - 29.05.2020 14:00:00 (BST)Eskdalemuir, United Kingdom (3162): wind direction: 23.05.2020 14:00:00 - 29.05.2020 14:00:00 (BST)Eskdalemuir, United Kingdom (3162): reduced air pressure: 23.05.2020 14:00:00 - 29.05.2020 14:00:00 (BST)Eskdalemuir, United Kingdom (3162): visibility: 23.05.2020 14:00:00 - 29.05.2020 14:00:00 (BST)Eskdalemuir, United Kingdom (3162): sunshine duration: 23.05.2020 14:00:00 - 29.05.2020 14:00:00 (BST)Eskdalemuir, United Kingdom (3162): precipitation: 23.05.2020 14:00:00 - 29.05.2020 14:00:00 (BST)
Date & Time tt [°C] td [°C] tt -20cm [°C] tt -100cm [°C] ff [km/h] ff [kn] fx [km/h] fx [kn] dd ppp [hPa] vv [km] sd [min] rr [mm]
29.05.2020 14:00:00 22,9 10,2 - - 11 6 - - S 1026,2 28 60 0,0
29.05.2020 13:00:00 22,5 10,4 - - 15 8 - - S 1026,8 21 60 0,0
29.05.2020 12:00:00 22,7 10,8 - - 16 9 - - SSE 1027,3 19 60 0,0
29.05.2020 11:00:00 21,4 10,2 - - 11 6 - - SE 1027,9 9 60 0,0
29.05.2020 10:00:00 19,5 9,0 13,0 10,7 5 3 - - SE 1028,5 21 60 0,0
29.05.2020 09:00:00 17,3 9,3 - - 8 4 - - SE 1029,1 18 60 0,0
29.05.2020 08:00:00 14,2 11,9 - - 2 1 - - ESE 1029,6 22 60 0,0
29.05.2020 07:00:00 9,1 8,9 - - 2 1 - - ENE 1030,2 25 60 0,0
29.05.2020 06:00:00 7,6 7,2 - - 2 1 - - S 1030,6 19 18 0,0
29.05.2020 05:00:00 7,3 6,8 - - 4 2 - - NNW 1030,6 23 0 0,0
29.05.2020 04:00:00 7,4 6,7 - - 4 2 - - NW 1030,6 18 0 0,0
29.05.2020 03:00:00 8,1 7,3 - - 4 2 - - N 1030,6 24 0 0,0
29.05.2020 02:00:00 8,8 7,6 - - 2 1 - - WNW 1030,5 30 0 0,0
29.05.2020 01:00:00 9,4 8,0 - - 4 2 - - NNW 1030,7 35 - 0,0
29.05.2020 00:00:00 10,8 8,4 - - 4 2 - - NW 1030,8 40 0 0,0
28.05.2020 23:00:00 11,9 8,7 - - 5 3 - - WNW 1030,7 45 0 0,0
28.05.2020 22:00:00 14,3 9,7 - - 2 1 - - SW 1030,7 35 0 0,0
28.05.2020 21:00:00 17,8 10,4 - - 5 3 - - SSW 1030,0 45 0 0,0
28.05.2020 20:00:00 19,8 9,2 - - 9 5 - - SW 1030,0 45 42 0,0
28.05.2020 19:00:00 20,4 9,3 - - 9 5 - - S 1030,2 45 60 0,0
28.05.2020 18:00:00 20,9 9,6 - - 11 6 - - S 1030,6 40 60 0,0
28.05.2020 17:00:00 21,4 8,7 - - 11 6 - - SW 1030,9 50 60 0,0
28.05.2020 16:00:00 21,8 9,5 - - 11 6 - - SSW 1031,3 50 60 0,0
28.05.2020 15:00:00 21,2 8,4 - - 13 7 - - SSW 1031,7 30 60 0,0
28.05.2020 14:00:00 21,3 9,9 - - 13 7 - - SSW 1032,2 26 60 0,0
28.05.2020 13:00:00 20,3 7,9 - - 15 8 - - SSW 1032,8 27 60 0,0
28.05.2020 12:00:00 19,2 7,4 - - 16 9 - - SW 1033,3 23 60 0,0
28.05.2020 11:00:00 18,3 8,8 - - 18 10 - - SW 1033,7 29 60 0,0
28.05.2020 10:00:00 16,6 6,9 12,5 10,4 21 11 - - SW 1034,4 35 60 0,0
28.05.2020 09:00:00 15,4 8,5 - - 18 10 - - SW 1034,9 27 60 0,0
28.05.2020 08:00:00 10,3 7,6 - - 4 2 - - E 1035,7 19 36 0,0
28.05.2020 07:00:00 6,9 6,3 - - 2 1 - - WSW 1036,3 27 0 0,0
28.05.2020 06:00:00 4,8 4,2 - - 2 1 - - S 1036,8 18 0 0,0
28.05.2020 05:00:00 4,7 3,9 - - 0 0 - - N 1036,9 19 0 0,0
28.05.2020 04:00:00 5,5 4,3 - - 2 1 - - NNW 1037,0 19 0 0,0
28.05.2020 03:00:00 6,5 4,9 - - 4 2 - - NNW 1037,1 22 0 0,0
28.05.2020 02:00:00 7,9 5,9 - - 4 2 - - NNW 1037,0 25 0 0,0
28.05.2020 01:00:00 8,8 6,4 - - 5 3 - - NNW 1037,1 30 - 0,0
28.05.2020 00:00:00 9,3 6,4 - - 4 2 - - NNW 1037,2 30 0 0,0
27.05.2020 23:00:00 11,0 6,5 - - 2 1 - - WSW 1037,5 27 0 0,0
27.05.2020 22:00:00 12,8 6,7 - - 2 1 - - S 1037,4 30 0 0,0
27.05.2020 21:00:00 14,8 7,2 - - 9 5 - - SE 1036,6 40 12 0,0
27.05.2020 20:00:00 16,9 7,9 - - 5 3 - - S 1036,1 30 18 0,0
27.05.2020 19:00:00 16,7 6,2 - - 8 4 - - SSE 1036,1 30 42 0,0
27.05.2020 18:00:00 17,6 7,0 - - 15 8 - - SSE 1036,1 11 54 0,0
27.05.2020 17:00:00 18,6 4,7 - - 8 4 - - W 1036,1 45 54 0,0
27.05.2020 16:00:00 17,6 4,0 - - 8 4 - - S 1036,5 18 42 0,0
27.05.2020 15:00:00 16,4 3,4 - - 8 4 - - ESE 1036,7 30 24 0,0
27.05.2020 14:00:00 16,7 3,7 - - 8 4 - - NE 1037,0 35 60 0,0
27.05.2020 13:00:00 15,8 5,5 - - 9 5 - - E 1037,4 21 54 0,0
27.05.2020 12:00:00 15,4 5,8 - - 9 5 - - NE 1037,6 35 42 0,0
27.05.2020 11:00:00 13,9 6,5 - - 8 4 - - N 1038,2 30 0 0,0
27.05.2020 10:00:00 11,6 5,0 12,2 10,2 4 2 - - ENE 1037,9 26 0 0,0
27.05.2020 09:00:00 9,1 6,4 - - 2 1 - - ENE 1038,2 25 0 0,0
27.05.2020 08:00:00 6,9 5,9 - - 2 1 - - SE 1038,4 26 0 0,0
27.05.2020 07:00:00 4,4 4,1 - - 2 1 - - SSW 1038,5 27 0 0,0
27.05.2020 06:00:00 2,6 2,3 - - 2 1 - - NW 1038,5 20 0 0,0
27.05.2020 05:00:00 1,8 1,3 - - 2 1 - - NNW 1038,4 16 0 0,0
27.05.2020 04:00:00 2,2 1,7 - - 2 1 - - NNE 1038,5 14 0 0,0
27.05.2020 03:00:00 2,8 2,1 - - 0 0 - - N 1038,4 16 0 0,0
27.05.2020 02:00:00 3,9 2,7 - - 4 2 - - SSE 1038,2 17 0 0,0
27.05.2020 01:00:00 4,4 2,6 - - 4 2 - - SW 1038,3 19 - 0,0
27.05.2020 00:00:00 6,1 3,5 - - 5 3 - - NNE 1038,4 19 0 0,0
26.05.2020 23:00:00 7,8 4,8 - - 4 2 - - NNE 1038,1 20 0 0,0
26.05.2020 22:00:00 9,3 5,6 - - 5 3 - - N 1037,9 20 6 0,0
26.05.2020 21:00:00 12,2 5,8 - - 13 7 - - W 1036,9 25 60 0,0
26.05.2020 20:00:00 14,6 5,8 - - 15 8 - - WNW 1036,4 25 60 0,0
26.05.2020 19:00:00 16,5 6,0 - - 13 7 - - WNW 1035,8 28 60 0,0
26.05.2020 18:00:00 17,4 6,3 - - 13 7 - - WNW 1035,7 27 60 0,0
26.05.2020 17:00:00 17,2 6,7 - - 15 8 - - WNW 1035,7 27 60 0,0
26.05.2020 16:00:00 17,6 6,0 - - 15 8 - - W 1035,6 25 60 0,0
26.05.2020 15:00:00 17,0 5,1 - - 16 9 - - WNW 1035,5 40 60 0,0
26.05.2020 14:00:00 17,4 4,5 - - 16 9 - - W 1035,2 35 60 0,0
26.05.2020 13:00:00 16,8 4,1 - - 15 8 - - W 1035,1 40 60 0,0
26.05.2020 12:00:00 16,7 6,8 - - 21 11 - - W 1034,8 35 60 0,0
26.05.2020 11:00:00 15,9 9,3 - - 21 11 - - W 1034,7 45 60 0,0
26.05.2020 10:00:00 14,0 9,9 11,7 10,2 22 12 - - W 1034,6 30 48 0,0
26.05.2020 09:00:00 12,1 10,7 - - 15 8 - - W 1034,8 40 0 0,0
26.05.2020 08:00:00 11,1 10,5 - - 8 4 - - WSW 1034,4 5 0 0,0
26.05.2020 07:00:00 10,7 10,4 - - 5 3 - - SSW 1033,8 10 0 0,0
26.05.2020 06:00:00 10,3 10,1 - - 4 2 - - S 1033,7 6 0 0,2
26.05.2020 05:00:00 10,1 9,8 - - 4 2 - - SSE 1033,4 3,0 0 0,0
26.05.2020 04:00:00 10,1 9,8 - - 8 4 - - S 1033,2 4,6 0 0,0
26.05.2020 03:00:00 10,1 9,8 - - 8 4 - - S 1033,1 5 0 0,0
26.05.2020 02:00:00 10,0 9,7 - - 11 6 - - S 1033,0 3,9 0 0,0
26.05.2020 01:00:00 10,1 9,6 - - 5 3 - - S 1033,1 4,8 - 0,0
26.05.2020 00:00:00 10,1 9,3 - - 8 4 - - S 1033,1 9 0 0,0
25.05.2020 23:00:00 10,1 9,1 - - 13 7 - - S 1033,0 10 0 0,0
25.05.2020 22:00:00 10,3 8,9 - - 11 6 - - S 1032,8 12 0 0,0
25.05.2020 21:00:00 10,5 8,6 - - 15 8 - - S 1032,4 15 0 0,0
25.05.2020 20:00:00 10,9 8,2 - - 15 8 - - S 1032,1 22 0 0,0
25.05.2020 19:00:00 11,9 7,8 - - 16 9 - - S 1032,0 26 42 0,0
25.05.2020 18:00:00 12,0 6,3 - - 31 17 46 25 SSW 1032,0 26 30 0,0
25.05.2020 17:00:00 11,9 6,8 - - 28 15 - - S 1031,8 40 0 0,0
25.05.2020 16:00:00 12,5 8,7 - - 21 11 - - S 1032,4 30 18 0,0
25.05.2020 15:00:00 13,3 9,1 - - 34 18 50 27 SSW 1031,9 27 18 0,0
25.05.2020 14:00:00 12,7 10,0 - - 28 15 48 26 S 1032,3 19 18 0,0
25.05.2020 13:00:00 14,4 10,0 - - 29 16 - - SSW 1032,1 17 12 0,0
25.05.2020 12:00:00 12,6 10,2 - - 18 10 - - SSW 1032,3 16 0 0,0
25.05.2020 11:00:00 11,4 9,2 - - 16 9 - - S 1032,8 28 0 0,0
25.05.2020 10:00:00 10,9 9,0 11,4 10,2 15 8 - - S 1033,2 20 0 0,0
25.05.2020 09:00:00 11,0 9,8 - - 15 8 - - SSW 1033,5 14 0 0,0
25.05.2020 08:00:00 9,5 9,0 - - 11 6 - - SSW 1033,4 8 0 0,0
25.05.2020 07:00:00 8,8 8,6 - - 9 5 - - SSW 1033,1 4,7 0 0,0
25.05.2020 06:00:00 8,5 8,3 - - 5 3 - - S 1032,8 5 0 0,0
25.05.2020 05:00:00 8,8 8,7 - - 13 7 - - SSW 1032,8 7 0 0,0
25.05.2020 04:00:00 8,7 8,6 - - 5 3 - - SSE 1032,8 0,2 0 0,0
25.05.2020 03:00:00 7,8 7,6 - - 4 2 - - WNW 1032,7 0,9 0 0,0
25.05.2020 02:00:00 8,4 8,2 - - 4 2 - - SE 1032,5 5 0 0,0
25.05.2020 01:00:00 8,2 7,4 - - 5 3 - - SSE 1032,6 12 - 0,0
25.05.2020 00:00:00 8,7 8,0 - - 5 3 - - N 1032,4 13 0 0,0
24.05.2020 23:00:00 9,1 8,2 - - 5 3 - - SE 1032,0 14 0 0,0
24.05.2020 22:00:00 9,7 7,9 - - 8 4 - - SW 1031,5 17 0 0,0
24.05.2020 21:00:00 10,8 8,2 - - 13 7 - - W 1030,6 18 12 0,0
24.05.2020 20:00:00 12,0 8,5 - - 15 8 - - W 1030,4 17 0 0,0
24.05.2020 19:00:00 12,9 8,8 - - 9 5 - - WSW 1030,5 17 6 0,0
24.05.2020 18:00:00 13,4 8,7 - - 13 7 46 25 WSW 1029,7 21 24 0,0
24.05.2020 17:00:00 13,7 9,0 - - 28 15 - - WSW 1029,2 28 24 0,0
24.05.2020 16:00:00 13,1 9,1 - - 15 8 - - WSW 1029,0 26 18 0,0
24.05.2020 15:00:00 13,4 10,6 - - 22 12 - - W 1028,1 28 6 0,0
24.05.2020 14:00:00 12,3 10,3 - - 24 13 50 27 W 1027,3 23 0 0,0
24.05.2020 13:00:00 12,5 10,6 - - 24 13 50 27 W 1026,2 30 0 0,0
24.05.2020 12:00:00 11,2 9,9 - - 22 12 - - W 1025,7 12 0 0,0
24.05.2020 11:00:00 11,1 9,7 - - 22 12 - - W 1024,8 17 0 0,0
24.05.2020 10:00:00 10,9 9,6 11,4 10,2 16 9 - - WSW 1024,1 6 0 0,2
24.05.2020 09:00:00 10,8 9,5 - - 21 11 - - WSW 1022,8 8 0 0,2
24.05.2020 08:00:00 10,5 9,4 - - 18 10 50 27 SW 1021,8 6 0 0,4
24.05.2020 07:00:00 10,4 9,4 - - 24 13 - - W 1020,4 11 0 0,6
24.05.2020 06:00:00 10,2 9,3 - - 18 10 - - WSW 1019,7 6 0 0,2
24.05.2020 05:00:00 10,1 8,8 - - 24 13 - - WSW 1018,9 7 0 0,2
24.05.2020 04:00:00 9,7 8,7 - - 22 12 - - WSW 1018,0 4,6 0 0,4
24.05.2020 03:00:00 9,2 8,3 - - 18 10 - - WSW 1017,6 16 0 0,2
24.05.2020 02:00:00 8,8 7,9 - - 28 15 48 26 SW 1017,3 30 0 0,0
24.05.2020 01:00:00 8,2 6,9 - - 24 13 - - SW 1017,3 13 - 0,2
24.05.2020 00:00:00 8,1 5,5 - - 15 8 48 26 SSW 1017,4 12 0 0,0
23.05.2020 23:00:00 8,5 5,5 - - 21 11 46 25 SW 1017,1 17 0 0,0
23.05.2020 22:00:00 8,4 5,6 - - 24 13 48 26 WSW 1016,6 16 0 0,0
23.05.2020 21:00:00 8,5 6,2 - - 24 13 54 29 WSW 1016,0 18 0 0,8
23.05.2020 20:00:00 8,7 6,5 - - 34 18 55 30 WSW 1015,1 26 0 0,4
23.05.2020 19:00:00 8,7 6,9 - - 41 22 55 30 WSW 1014,2 7 0 1,0
23.05.2020 18:00:00 8,9 7,0 - - 31 17 57 31 SW 1013,4 7 0 0,4
23.05.2020 17:00:00 9,0 7,2 - - 37 20 65 35 WSW 1012,3 6 0 0,2
23.05.2020 16:00:00 9,1 7,7 - - 37 20 61 33 SW 1011,2 5 0 0,8
23.05.2020 15:00:00 9,3 7,6 - - 35 19 65 35 SW 1010,3 4,7 0 0,6
23.05.2020 14:00:00 9,0 7,1 - - 41 22 70 38 SW 1009,4 14 0 0,8

tt = temperature
td = dewpoint
tt -20cm = temperature -20cm
tt -100cm = temperature -100cm
ff = wind speed
fx = gusts
dd = wind direction
ppp = reduced air pressure
vv = visibility
sd = sunshine duration
rr = precipitation

Next stations